Snowfall_Accumulation
0.0 0.0 0.0 0.0 0.0 0.0 0.0 0.0 0.0 0.0 0.0 0.0 0.0 0.0 0.0 0.0 0.0 0.0 0.0 0.0 0.0 0.0 0.0 0.0 0.0 0.0 0.0 0.0 0.0 0.0 0.0 0.0 0.0 0.0 0.0 0.0 0.0 0.0 0.0 0.0 0.0 0.0 0.0 0.0 0.0 0.0 0.0 0.0 0.0
0.0 0.0 0.0 0.0 0.0 0.3 0.0 0.0 0.0 0.0 0.0 0.0 0.0 0.0 0.0 0.0 0.0 0.0 0.0 0.0 0.0 0.0 0.0 0.0 0.0 0.0 0.0 0.0 0.0 0.0 0.0 0.0 0.0 0.0 0.0 0.0 0.0 0.0 0.0 0.0 0.0 0.0 0.0 0.0 0.0 0.0 0.0 0.0 0.0
0.0 0.0 0.0 0.0 0.1 0.4 0.0 0.0 0.0 0.0 0.0 0.0 0.0 0.0 0.0 0.0 0.0 0.0 0.0 0.0 0.0 0.0 0.0 0.0 0.0 0.0 0.0 0.0 0.0 0.0 0.0 0.0 0.0 0.0 0.0 0.0 0.0 0.0 0.0 0.0 0.0 0.0 0.0 0.0 0.0 0.0 0.0 0.0 0.0
0.0 0.0 0.0 0.0 0.3 0.0 0.0 0.0 0.0 0.0 0.0 0.0 0.0 0.0 0.0 0.0 0.0 0.0 0.0 0.0 0.0 0.0 0.0 0.0 0.0 0.0 0.0 0.0 0.0 0.0 0.0 0.0 0.0 0.0 0.0 0.0 0.0 0.0 0.0 0.0 0.0 0.0 0.0 0.0 0.0 0.0 0.0 0.0 0.0
0.0 0.0 0.0 0.2 0.1 0.0 0.0 0.0 0.0 0.0 0.0 0.0 0.0 0.0 0.0 0.0 0.0 0.0 0.0 0.0 0.0 0.0 0.0 0.0 0.0 0.0 0.0 0.0 0.0 0.0 0.0 0.0 0.0 0.0 0.0 0.0 0.0 0.0 0.0 0.0 0.0 0.0 0.0 0.0 0.0 0.0 0.0 0.0 0.0
0.0 0.0 0.3 0.9 0.2 0.0 0.0 0.0 0.0 0.0 0.0 0.0 0.0 0.0 0.0 0.0 0.0 0.0 0.0 0.0 0.0 0.0 0.0 0.0 0.0 0.0 0.0 0.0 0.0 0.0 0.0 0.0 0.0 0.0 0.0 0.0 0.0 0.0 0.0 0.0 0.0 0.0 0.0 0.0 0.0 0.0 0.0 0.0 0.0
0.0 0.1 0.5 0.5 0.2 0.0 0.0 0.0 0.0 0.0 0.0 0.0 0.0 0.0 0.0 0.0 0.0 0.0 0.0 0.0 0.0 0.0 0.0 0.0 0.0 0.0 0.0 0.0 0.0 0.0 0.0 0.0 0.0 0.0 0.0 0.0 0.0 0.0 0.0 0.0 0.0 0.0 0.0 0.0 0.0 0.0 0.0 0.0 0.0
0.0 0.2 0.5 0.3 0.2 0.1 0.0 0.0 0.0 0.0 0.0 0.0 0.0 0.0 0.0 0.0 0.0 0.0 0.0 0.0 0.0 0.0 0.0 0.0 0.0 0.0 0.0 0.0 0.0 0.0 0.0 0.0 0.0 0.0 0.0 0.0 0.0 0.0 0.0 0.0 0.0 0.0 0.0 0.0 0.0 0.0 0.0 0.0 0.0
0.0 0.3 1.1 0.4 0.2 0.1 0.0 0.1 0.0 0.0 0.0 0.0 0.0 0.0 0.0 0.0 0.0 0.0 0.0 0.0 0.0 0.0 0.0 0.0 0.0 0.0 0.0 0.0 0.0 0.0 0.0 0.0 0.0 0.0 0.0 0.0 0.0 0.0 0.0 0.0 0.0 0.0 0.0 0.0 0.0 0.0 0.0 0.0 0.0
0.2 1.1 0.5 0.1 0.1 0.1 0.1 0.1 0.1 0.0 0.0 0.0 0.0 0.0 0.0 0.0 0.0 0.0 0.0 0.0 0.0 0.0 0.0 0.0 0.0 0.0 0.0 0.0 0.0 0.0 0.0 0.0 0.0 0.0 0.0 0.0 0.0 0.0 0.0 0.0 0.0 0.0 0.0 0.0 0.0 0.0 0.0 0.0 0.0
0.3 0.5 0.2 0.1 0.1 0.1 0.1 0.1 0.1 0.1 0.1 0.1 0.1 0.0 0.0 0.0 0.0 0.0 0.0 0.0 0.0 0.0 0.0 0.0 0.0 0.0 0.0 0.0 0.0 0.0 0.0 0.0 0.0 0.0 0.0 0.0 0.0 0.0 0.0 0.0 0.0 0.0 0.0 0.0 0.0 0.0 0.0 0.0 0.0
0.3 0.2 0.1 0.3 0.1 0.1 0.2 0.2 0.1 0.2 0.4 0.2 0.1 0.0 0.0 0.0 0.0 0.0 0.0 0.0 0.0 0.0 0.0 0.0 0.0 0.0 0.0 0.0 0.0 0.0 0.0 0.0 0.0 0.0 0.0 0.0 0.0 0.0 0.0 0.0 0.0 0.0 0.0 0.0 0.0 0.0 0.0 0.0 0.0
0.3 0.2 0.2 0.2 0.1 0.2 0.2 0.3 0.2 0.3 0.3 0.2 0.1 0.0 0.0 0.0 0.0 0.0 0.0 0.0 0.0 0.0 0.0 0.0 0.0 0.0 0.0 0.0 0.0 0.0 0.0 0.0 0.0 0.0 0.0 0.0 0.0 0.0 0.0 0.0 0.0 0.0 0.0 0.0 0.0 0.0 0.0 0.0 0.0
0.2 0.1 0.1 0.1 0.1 0.1 0.2 0.5 0.4 0.5 0.2 0.1 0.1 0.1 0.1 0.0 0.0 0.0 0.0 0.0 0.1 0.0 0.0 0.1 0.0 0.0 0.0 0.0 0.0 0.0 0.0 0.0 0.0 0.0 0.0 0.0 0.0 0.0 0.0 0.0 0.0 0.0 0.0 0.0 0.0 0.0 0.0 0.0 0.0
0.2 0.2 0.1 0.0 0.0 0.0 0.1 0.5 0.7 0.6 0.2 0.1 0.2 0.2 0.1 0.1 0.1 0.1 0.1 0.1 0.1 0.1 0.1 0.1 0.1 0.1 0.1 0.1 0.1 0.1 0.1 0.0 0.0 0.0 0.0 0.0 0.0 0.0 0.0 0.0 0.0 0.0 0.0 0.0 0.0 0.0 0.0 0.0 0.0
0.5 1.0 1.4 0.2 0.0 0.0 0.6 1.6 0.6 0.4 0.3 0.2 0.3 0.3 0.3 0.2 0.2 0.2 0.1 0.1 0.1 0.1 0.0 0.1 0.1 0.1 0.1 0.1 0.1 0.1 0.1 0.1 0.1 0.1 0.1 0.1 0.1 0.1 0.1 0.0 0.0 0.0 0.0 0.0 0.0 0.0 0.0 0.0 0.0
4.8 6.1 3.8 1.2 0.1 0.2 0.8 1.2 0.6 0.4 0.4 0.5 0.4 0.4 0.5 0.4 0.3 0.2 0.2 0.3 0.1 0.1 0.1 0.1 0.1 0.1 0.2 0.1 0.1 0.1 0.1 0.2 0.2 0.1 0.1 0.2 0.1 0.1 0.1 0.1 0.1 0.0 0.0 0.0 0.0 0.0 0.0 0.0 0.0
6.0 4.6 2.7 2.0 0.6 0.6 1.2 1.1 0.7 0.4 0.4 0.6 0.6 0.5 0.5 0.5 0.5 0.4 0.3 0.3 0.2 0.2 0.1 0.1 0.1 0.1 0.3 0.2 0.2 0.1 0.1 0.2 0.2 0.2 0.2 0.2 0.2 0.2 0.2 0.1 0.1 0.1 0.1 0.1 0.1 0.1 0.1 0.1 0.0
3.6 3.5 3.1 1.5 0.9 1.4 1.6 1.5 1.0 0.6 0.5 0.5 0.6 0.7 0.7 0.7 0.6 0.3 0.3 0.3 0.3 0.2 0.2 0.2 0.2 0.2 0.2 0.3 0.2 0.2 0.3 0.1 0.2 0.2 0.3 0.3 0.2 0.2 0.3 0.2 0.1 0.2 0.2 0.1 0.1 0.1 0.2 0.1 0.0
4.0 4.6 3.5 1.9 1.2 2.2 2.2 2.1 1.1 0.9 0.9 0.9 0.6 0.6 0.7 0.6 0.6 0.5 0.3 0.3 0.3 0.2 0.3 0.3 0.3 0.3 0.3 0.2 0.4 0.3 0.4 0.4 0.3 0.4 0.3 0.4 0.5 0.3 0.3 0.4 0.2 0.3 0.3 0.2 0.4 0.2 0.3 0.1 0.1
4.5 4.1 3.8 4.1 2.6 2.1 3.6 3.7 2.3 1.5 1.1 1.0 0.8 0.7 0.6 0.8 0.8 0.8 0.6 0.5 0.3 0.4 0.4 0.4 0.4 0.5 0.5 0.4 0.3 0.3 0.4 0.4 0.3 0.5 0.5 0.4 0.5 0.6 0.5 0.4 0.3 0.4 0.3 0.4 0.4 0.5 0.7 0.5 0.2
5.4 1.7 2.4 4.0 6.6 8.8 6.6 12.4 4.4 2.4 1.7 1.6 1.2 1.2 1.0 1.0 1.0 0.9 0.7 0.6 0.5 0.5 0.6 0.6 0.6 0.7 0.7 0.5 0.6 0.5 0.7 0.7 0.8 1.0 0.7 0.7 0.8 0.8 0.7 0.6 0.4 0.4 0.4 0.4 0.5 0.4 0.7 0.5 0.7
3.5 0.9 2.2 3.8 8.1 11.3 6.3 11.5 7.2 3.2 2.7 2.9 2.2 1.7 1.3 1.2 1.3 1.3 1.0 0.8 0.6 0.5 0.4 0.5 0.6 0.7 0.8 1.0 0.8 1.0 0.9 1.1 1.1 1.1 0.9 0.6 0.8 1.0 1.0 0.9 0.6 0.4 0.5 0.5 0.5 0.7 0.8 0.8 0.6
1.5 1.9 2.5 4.2 10.8 18.1 7.8 10.0 9.3 6.5 5.1 3.2 2.4 2.1 1.6 1.6 1.1 1.1 1.0 0.8 0.6 0.5 0.4 0.4 0.5 0.6 0.8 0.9 1.0 1.3 1.6 1.5 1.2 1.1 1.3 1.0 0.9 0.9 1.0 1.2 0.9 0.6 0.5 0.5 0.6 0.7 0.8 0.9 0.5
3.9 12.6 24.1 24.2 23.1 13.5 5.5 8.2 10.4 5.2 3.6 3.2 3.0 2.6 2.1 2.0 1.5 1.2 1.2 1.0 0.8 0.6 0.5 0.4 0.4 0.5 0.7 0.7 0.8 0.9 1.2 1.4 1.5 1.5 1.7 1.6 1.5 1.2 1.2 1.5 1.5 1.4 0.8 0.7 0.7 0.8 0.9 0.9 1.0
4.8 9.3 19.1 18.1 12.2 7.8 6.3 8.6 9.4 4.4 3.6 3.0 2.6 2.5 2.1 1.9 2.0 1.7 1.4 1.1 1.0 0.9 0.7 0.6 0.5 0.4 0.5 0.5 0.7 0.6 0.7 1.0 1.2 1.3 1.5 1.7 1.4 1.3 1.2 1.3 1.4 1.6 1.2 0.8 0.7 0.8 0.9 1.0 1.1
6.6 8.9 7.6 15.2 11.2 9.3 8.8 8.0 6.0 2.8 2.7 2.7 2.3 2.0 1.9 2.1 1.9 1.9 1.7 1.6 1.1 1.2 1.1 1.0 0.9 0.5 0.5 0.5 0.5 0.6 0.7 0.7 1.0 1.1 1.3 1.5 1.5 1.4 1.2 1.2 1.2 1.3 1.7 1.2 1.1 1.2 1.0 1.0 1.3
3.5 5.9 12.0 20.2 17.9 12.6 8.3 7.5 9.0 5.7 4.3 3.2 2.7 2.3 2.0 1.9 2.0 1.8 1.9 1.8 1.5 1.5 1.6 1.3 1.2 1.0 1.0 0.8 0.8 0.7 0.8 0.5 0.7 1.0 1.1 1.4 1.1 1.2 1.1 1.2 1.2 1.3 1.4 1.1 1.1 1.1 1.1 1.4 1.5
5.8 9.2 13.1 15.8 14.2 14.0 10.6 10.1 8.4 6.2 4.4 3.6 3.0 2.7 2.6 2.3 2.4 2.4 2.0 2.1 1.9 1.8 1.9 1.8 1.5 1.2 1.2 1.2 1.1 1.0 1.0 0.7 0.6 0.8 0.9 1.0 1.0 0.9 1.0 1.1 1.3 1.5 1.4 1.2 1.2 1.2 1.2 1.2 1.5
4.0 7.6 11.1 18.0 13.7 10.8 11.3 10.8 5.5 4.4 3.9 3.9 3.5 3.3 3.2 2.9 2.7 2.7 2.5 2.1 2.0 2.0 2.0 2.0 1.9 1.6 1.6 1.4 1.3 1.3 1.2 1.3 0.8 0.8 0.8 1.0 0.9 0.9 1.0 1.0 1.1 1.4 1.4 1.4 1.2 1.4 1.2 1.4 1.4